Location: Unnamed
(42.1164°N, 2.7652°E)
Time: 19:46:24
(UTC+02:00)

ISS - Pass Details

Date: 14 May 2021
Orbit: 417 x 422 km, 51.6° (Epoch: 14 June)

Event Time Altitude Azimuth Distance (km) Brightness Sun altitude
Exits shadow 02:50:28 - 317° (NW) 1,646 -0.4 -27.4°
Reaches altitude 10° 02:50:58 10° 323° (NW) 1,507 -0.5 -27.4°
Maximum altitude 02:53:14 17° 5° (N) 1,168 -0.7 -27.2°
Drops below altitude 10° 02:55:30 10° 48° (NE) 1,508 -0.2 -27.1°
Sets 02:58:10 0° 70° (ENE) 2,373 0.6 -27.0°
